N5MDT Weather Reports


time (UTC)temp
F
wind
direction
speed
knots
gust
knots
rain 1hr
in
rain 24hr
in
rain mn
in
humidity
%
barometer
mb
20260508025845 70 55 0.0 0.0 0.00 0.00 0.00 72 1015.0
20260508024844 70 45 0.0 0.0 0.00 0.00 0.00 72 1015.1
20260508023844 70 5 0.0 0.0 0.00 0.00 0.00 71 1015.3
20260508022844 70 5 0.0 0.0 0.00 0.00 0.00 70 1015.3
20260508021844 70 51 0.0 0.0 0.00 0.00 0.00 71 1015.0
20260508020844 71 305 0.0 0.0 0.00 0.00 0.00 70 1015.4
20260508015844 71 55 0.0 0.0 0.00 0.00 0.00 70 1015.3
20260508014844 71 305 0.0 0.0 0.00 0.00 0.00 70 1015.3
20260508013844 72 329 0.0 0.0 0.00 0.00 0.00 69 1015.5
20260508012844 72 311 0.0 0.0 0.00 0.00 0.00 69 1015.4
20260508011844 73 306 0.0 0.0 0.00 0.00 0.00 68 1015.0
20260508010844 74 292 0.0 0.0 0.00 0.00 0.00 68 1015.1
20260508005844 74 313 0.0 0.0 0.00 0.00 0.00 68 1015.1
20260508004844 74 301 0.0 2.6 0.00 0.00 0.00 67 1015.0
20260508003843 74 327 0.0 0.0 0.00 0.00 0.00 66 1014.8
20260508002844 75 360 0.0 0.9 0.00 0.00 0.00 66 1014.6
20260508001843 75 329 0.0 0.0 0.00 0.00 0.00 65 1015.2
20260508000843 76 329 0.0 2.6 0.00 0.00 0.00 65 1015.3
20260507235843 76 312 0.0 1.7 0.00 0.00 0.00 65 1015.0
20260507234843 77 313 0.0 1.7 0.00 0.00 0.00 65 1015.0
20260507233843 77 313 0.0 0.9 0.00 0.00 0.00 64 1015.1
20260507232843 77 313 0.0 2.6 0.00 0.00 0.00 64 1015.4
20260507231843 78 317 0.0 1.7 0.00 0.00 0.00 64 1015.4
20260507230843 78 332 0.0 4.3 0.00 0.00 0.00 63 1015.2
20260507225843 78 315 0.0 1.7 0.00 0.00 0.00 62 1015.0
20260507224843 78 36 0.0 0.9 0.00 0.00 0.00 62 1014.9
20260507223843 79 69 0.0 0.0 0.00 0.00 0.00 62 1014.7
20260507222842 79 330 0.0 0.0 0.00 0.00 0.00 61 1014.7
20260507221842 79 328 0.0 0.0 0.00 0.00 0.00 61 1014.6
20260507220843 79 75 0.0 0.0 0.00 0.00 0.00 62 1014.7
20260507215842 80 75 0.0 0.9 0.00 0.00 0.00 61 1015.1
20260507214842 80 29 0.0 0.0 0.00 0.00 0.00 61 1015.0
20260507213843 81 27 0.0 0.0 0.00 0.00 0.00 60 1015.1
20260507212843 81 61 0.0 1.7 0.00 0.00 0.00 59 1015.0
20260507211842 82 309 0.0 0.9 0.00 0.00 0.00 58 1014.9
20260507210842 83 328 0.0 1.7 0.00 0.00 0.00 59 1015.3
20260507205842 83 5 0.0 1.7 0.00 0.00 0.00 59 1015.5
20260507204842 82 42 0.0 1.7 0.00 0.00 0.00 61 1015.6
20260507203842 82 42 0.0 2.6 0.00 0.00 0.00 61 1015.6
20260507202842 82 311 0.9 2.6 0.00 0.00 0.00 60 1015.7
20260507201842 82 329 0.9 2.6 0.00 0.00 0.00 58 1015.7
20260507200842 82 341 0.0 5.2 0.00 0.00 0.00 60 1015.7
20260507195842 81 23 0.9 2.6 0.00 0.00 0.00 62 1015.7
20260507194841 80 59 0.0 3.5 0.00 0.00 0.00 62 1016.2
20260507193841 79 21 0.0 4.3 0.00 0.00 0.00 65 1016.3
20260507192841 78 31 0.0 3.5 0.00 0.00 0.00 65 1016.2
20260507191841 77 19 0.9 1.7 0.00 0.00 0.00 65 1016.2
20260507190841 77 38 0.0 1.7 0.00 0.00 0.00 67 1016.4
20260507185841 76 32 0.0 1.7 0.00 0.00 0.00 68 1016.8
20260507184841 75 38 0.0 2.6 0.00 0.00 0.00 69 1017.3
20260507183841 74 311 2.6 3.5 0.00 0.00 0.00 69 1017.1
20260507182841 74 63 0.0 1.7 0.00 0.00 0.00 70 1017.1
20260507181841 73 13 0.0 1.7 0.00 0.00 0.00 70 1017.3
20260507180841 72 34 0.0 3.5 0.00 0.00 0.00 72 1017.6
20260507175840 72 300 3.5 3.5 0.00 0.00 0.00 70 1017.5
20260507174840 71 298 0.9 3.5 0.00 0.00 0.00 72 1017.7
20260507173840 71 323 0.0 2.6 0.00 0.00 0.00 73 1017.6
20260507172841 70 343 0.0 2.6 0.00 0.00 0.00 74 1017.8
20260507171840 69 338 0.0 4.3 0.00 0.00 0.00 75 1018.2
20260507170840 68 340 0.9 3.5 0.00 0.00 0.00 76 1018.0
20260507165840 68 30 0.9 0.9 0.00 0.00 0.00 77 1018.0
20260507164840 67 330 0.0 1.7 0.00 0.00 0.00 77 1018.0
20260507163840 67 339 0.0 1.7 0.00 0.00 0.00 77 1017.8
20260507162840 66 41 0.0 0.9 0.00 0.00 0.00 78 1017.7
20260507161840 66 42 0.0 2.6 0.00 0.00 0.00 78 1017.5
20260507160840 65 51 0.0 1.7 0.00 0.00 0.00 79 1017.5
20260507155840 65 337 0.0 4.3 0.00 0.00 0.00 79 1017.7
20260507154840 64 23 0.0 1.7 0.00 0.00 0.00 80 1016.9
20260507153840 64 59 1.7 1.7 0.00 0.00 0.00 81 1017.0
20260507152840 63 41 0.9 0.9 0.00 0.00 0.00 81 1017.3
20260507151840 63 44 0.0 2.6 0.00 0.00 0.00 80 1017.6
20260507150839 63 5 0.9 7.8 0.00 0.00 0.00 81 1017.7
20260507145839 63 318 0.0 2.6 0.00 0.00 0.00 81 1017.8
20260507144840 63 12 0.0 3.5 0.00 0.00 0.00 82 1017.8
20260507143840 63 332 0.9 1.7 0.00 0.00 0.00 82 1018.2
20260507142839 62 322 1.7 4.3 0.00 0.00 0.00 82 1018.0
20260507141839 62 348 0.9 1.7 0.00 0.00 0.00 82 1018.0
20260507140839 62 50 0.0 2.6 0.00 0.00 0.00 82 1017.9
20260507135839 62 331 0.9 2.6 0.00 0.00 0.00 82 1017.9
20260507134839 62 337 0.0 4.3 0.00 0.00 0.00 82 1018.1
20260507133839 62 330 0.0 0.0 0.00 0.00 0.00 82 1018.0
20260507132839 62 355 0.0 0.0 0.00 0.00 0.00 83 1017.9
20260507131839 62 68 0.0 0.0 0.00 0.00 0.00 83 1017.8
20260507130839 62 327 0.0 1.7 0.00 0.00 0.00 83 1017.9
20260507125838 62 348 0.0 4.3 0.00 0.00 0.00 83 1018.2
20260507124838 63 335 0.0 3.5 0.00 0.00 0.00 83 1018.0
20260507123839 63 15 0.0 4.3 0.00 0.00 0.00 83 1017.6
20260507122839 63 360 0.0 3.5 0.00 0.00 0.00 83 1017.0
20260507121839 63 329 0.0 2.6 0.00 0.00 0.00 82 1016.9
20260507120839 63 5 0.0 3.5 0.00 0.00 0.00 82 1016.6
20260507115838 63 31 0.0 0.9 0.00 0.00 0.00 82 1016.2
20260507114838 63 33 0.0 4.3 0.00 0.00 0.00 82 1016.2
20260507113839 64 29 0.0 3.5 0.00 0.00 0.00 82 1016.4
20260507112838 64 336 0.0 4.3 0.00 0.00 0.00 82 1016.3
20260507111838 64 320 2.6 2.6 0.00 0.00 0.00 82 1016.6
20260507110838 64 286 0.0 1.7 0.00 0.00 0.00 82 1016.1
20260507105838 64 302 0.9 1.7 0.00 0.00 0.00 82 1016.0
20260507104838 64 19 0.0 0.0 0.00 0.00 0.00 82 1015.8
20260507103838 65 335 0.0 1.7 0.00 0.00 0.00 82 1015.8
20260507102838 65 325 0.0 0.0 0.00 0.00 0.00 82 1015.2
20260507101837 65 311 0.0 0.9 0.00 0.00 0.00 82 1015.7
20260507100837 65 65 0.0 0.9 0.00 0.00 0.00 82 1015.2
20260507095838 65 50 0.0 0.0 0.00 0.00 0.00 82 1015.5
20260507094837 65 53 0.0 1.7 0.00 0.00 0.00 82 1014.8
20260507093837 65 59 0.0 0.9 0.00 0.00 0.00 83 1014.4
20260507092838 65 57 0.0 0.9 0.00 0.00 0.00 82 1014.3
20260507091837 65 65 0.0 2.6 0.00 0.00 0.00 83 1014.2
20260507090837 65 63 0.0 1.7 0.00 0.00 0.00 83 1014.5
20260507085837 66 291 0.0 0.0 0.00 0.00 0.00 83 1014.8
20260507084837 66 91 0.0 1.7 0.00 0.00 0.00 83 1014.9
20260507083837 66 15 0.0 0.0 0.00 0.00 0.00 83 1014.6
20260507082837 66 355 0.0 1.7 0.00 0.00 0.00 82 1014.5
20260507081837 66 9 0.0 0.9 0.00 0.00 0.00 82 1014.4
20260507080837 66 89 0.9 1.7 0.00 0.00 0.00 82 1014.6
20260507075837 66 346 0.0 1.7 0.00 0.00 0.00 82 1014.6
20260507074837 66 351 0.0 5.2 0.00 0.00 0.00 82 1015.0
20260507073836 66 338 0.0 0.9 0.00 0.00 0.00 82 1014.9
20260507072836 66 312 0.9 3.5 0.00 0.00 0.00 81 1015.1
20260507071836 66 28 0.0 3.5 0.00 0.00 0.00 81 1014.6
20260507070836 66 333 0.0 2.6 0.00 0.00 0.00 81 1015.4
20260507065836 66 306 0.0 2.6 0.00 0.00 0.00 81 1015.3
20260507064836 66 287 0.0 2.6 0.00 0.00 0.00 81 1015.4
20260507063836 66 355 0.9 2.6 0.00 0.00 0.00 81 1015.4
20260507062836 67 331 0.0 2.6 0.00 0.00 0.00 80 1015.4
20260507061836 67 5 0.9 4.3 0.00 0.00 0.00 80 1015.4
20260507060836 67 348 0.0 2.6 0.00 0.00 0.00 80 1014.8
20260507055836 67 355 0.0 2.6 0.00 0.00 0.00 80 1015.0
20260507054836 67 349 0.0 6.1 0.00 0.00 0.00 80 1015.1
20260507053836 67 331 0.0 2.6 0.00 0.00 0.00 80 1015.2
20260507052836 67 328 0.0 4.3 0.00 0.00 0.00 79 1015.1
20260507051836 67 326 0.0 1.7 0.00 0.00 0.00 79 1014.7
20260507050835 67 19 0.0 3.5 0.00 0.00 0.00 79 1014.8
20260507045835 67 343 0.9 1.7 0.00 0.00 0.00 78 1015.0
20260507044835 67 322 0.0 2.6 0.00 0.00 0.00 78 1015.1
20260507043835 67 311 0.9 1.7 0.00 0.00 0.00 78 1015.2
20260507042836 68 321 0.9 1.7 0.00 0.00 0.00 78 1014.8
20260507041836 68 336 0.0 2.6 0.00 0.00 0.00 78 1014.9
20260507040835 68 310 0.0 2.6 0.00 0.00 0.00 77 1014.3
20260507035835 68 317 0.0 1.7 0.00 0.00 0.00 77 1014.7
20260507034836 68 5 0.0 2.6 0.00 0.00 0.00 77 1014.9
20260507033836 69 348 0.0 2.6 0.00 0.00 0.00 77 1014.7
20260507032835 69 327 0.0 1.7 0.00 0.00 0.00 77 1014.4
20260507031835 69 294 0.0 4.3 0.00 0.00 0.00 77 1014.1
20260507030835 69 346 0.0 5.2 0.00 0.00 0.00 76 1014.0